Change the Weather History Date:

Monday, January 20, 2014

  Actual Average Record
Temperature  
Mean Temperature 47 °F -  
Max Temperature 50 °F 38 °F 55 °F (2008)
Min Temperature 44 °F 23 °F 15 °F (2005)
Degree Days  
Heating Degree Days 18    
Moisture  
Dew Point 46 °F    
Average Humidity 94    
Maximum Humidity 100    
Minimum Humidity 87    
Precipitation  
Precipitation 0.00 in - - ()
Sea Level Pressure  
Sea Level Pressure 29.63 in    
Wind  
Wind Speed 8 mph ()    
Max Wind Speed 14 mph    
Max Gust Speed -    
Visibility 4.5 miles    
Events Fog , Rain    
Averages and records for this station are not official NWS values.
T = Trace of Precipitation, MM = Missing Value Source: Averaged Metar Reports

Daily Weather History Graph

Daily Weather History Graph

Search for Another Location

Airport or City:

Trip Planner

Search our weather history database for the weather conditions in past years. The results will help you decide how hot, cold, wet, or windy it might be!

Date:

Astronomy

Jan. 20, 2014 Rise Set
Actual Time 7:22 AM CET 4:26 PM CET
Civil Twilight 6:48 AM CET 5:00 PM CET
Nautical Twilight 6:10 AM CET 5:38 PM CET
Astronomical Twilight 5:33 AM CET 6:14 PM CET
Moon 9:04 PM CET (1/20) 8:53 AM CET (1/20)
Length of Visible Light 10h 12m
Length of Day
9h 03m
Waning Gibbous, 84% of the Moon is Illuminated
Jan 20
Waning Gibbous
Jan 24
Last Quarter
Jan 30
New
Feb 6
First Quarter
Feb 15
Full

Hourly Weather History & Observations

Time (CET) Temp. Windchill Dew Point Humidity Pressure Visibility Wind Dir Wind Speed Gust Speed Precip Events Conditions
12:00 AM 46.4 °F 42.9 °F 44.6 °F 93% 29.68 in - ENE 6.9 mph - N/A   Clear
12:30 AM 46.4 °F 41.5 °F 42.8 °F 87% 29.68 in - East 10.4 mph - N/A   Clear
1:00 AM 46.4 °F 41.1 °F 44.6 °F 93% 29.68 in - ENE 11.5 mph - N/A   Clear
1:30 AM 46.4 °F 41.5 °F 44.6 °F 93% 29.68 in 6.2 mi East 10.4 mph - N/A   Mostly Cloudy
2:00 AM 46.4 °F 41.5 °F 44.6 °F 93% 29.68 in 6.2 mi East 10.4 mph - N/A Rain Light Rain
2:30 AM 46.4 °F 41.1 °F 44.6 °F 93% 29.68 in 6.2 mi East 11.5 mph - N/A Rain Light Rain
3:00 AM 46.4 °F 41.1 °F 44.6 °F 93% 29.65 in 6.2 mi East 11.5 mph - N/A Rain Light Rain
3:30 AM 46.4 °F 41.1 °F 44.6 °F 93% 29.65 in 6.2 mi East 11.5 mph - N/A Rain Light Rain
4:00 AM 46.4 °F 40.4 °F 46.4 °F 100% 29.65 in 6.2 mi East 13.8 mph - N/A Rain Light Rain
4:30 AM 46.4 °F 40.7 °F 44.6 °F 93% 29.62 in 6.2 mi East 12.7 mph - N/A   Mostly Cloudy
5:00 AM 46.4 °F 41.5 °F 46.4 °F 100% 29.62 in 6.2 mi East 10.4 mph - N/A Rain Light Rain
5:30 AM 46.4 °F 40.7 °F 46.4 °F 100% 29.62 in 6.2 mi East 12.7 mph - N/A Rain Light Rain
6:00 AM 46.4 °F 41.1 °F 46.4 °F 100% 29.62 in 5.0 mi ESE 11.5 mph - N/A Rain Rain
6:30 AM 46.4 °F 41.5 °F 46.4 °F 100% 29.62 in 3.7 mi East 10.4 mph - N/A Rain Light Rain
7:00 AM 46.4 °F 41.9 °F 46.4 °F 100% 29.62 in 3.1 mi ESE 9.2 mph - N/A Rain Rain
7:30 AM 46.4 °F 42.4 °F 46.4 °F 100% 29.62 in 2.5 mi ESE 8.1 mph - N/A Rain Light Rain
8:00 AM 46.4 °F 41.9 °F 46.4 °F 100% 29.62 in 2.5 mi ESE 9.2 mph - N/A Rain Light Rain
8:30 AM 46.4 °F 41.9 °F 46.4 °F 100% 29.62 in 3.1 mi East 9.2 mph - N/A   Mostly Cloudy
9:00 AM 46.4 °F 41.1 °F 46.4 °F 100% 29.62 in 3.1 mi East 11.5 mph - N/A   Mostly Cloudy
9:30 AM 48.2 °F - 46.4 °F 93% 29.62 in 3.1 mi ESE 10.4 mph - N/A Rain Light Rain
10:00 AM 48.2 °F - 46.4 °F 93% 29.62 in 3.7 mi ESE 9.2 mph - N/A   Mostly Cloudy
10:30 AM 48.2 °F - 46.4 °F 93% 29.62 in 3.1 mi ESE 9.2 mph - N/A   Mostly Cloudy
11:00 AM 48.2 °F - 46.4 °F 93% 29.62 in 3.1 mi ESE 10.4 mph - N/A   Mostly Cloudy
11:30 AM 50.0 °F - 46.4 °F 87% 29.62 in 4.3 mi ESE 9.2 mph - N/A   Scattered Clouds
12:00 PM 50.0 °F - 46.4 °F 87% 29.62 in 4.3 mi ESE 9.2 mph - N/A   Mostly Cloudy
12:30 PM 50.0 °F - 46.4 °F 87% 29.59 in 4.3 mi ESE 8.1 mph - N/A   Light Drizzle
1:00 PM 50.0 °F - 46.4 °F 87% 29.59 in 5.0 mi ESE 8.1 mph - N/A   Mostly Cloudy
1:30 PM 50.0 °F - 46.4 °F 87% 29.59 in 5.0 mi ESE 8.1 mph - N/A   Mostly Cloudy
2:00 PM 50.0 °F - 46.4 °F 87% 29.59 in - East 9.2 mph - N/A   Clear
2:30 PM 50.0 °F - 46.4 °F 87% 29.59 in 6.2 mi ESE 9.2 mph - N/A   Mostly Cloudy
3:00 PM 50.0 °F - 46.4 °F 87% 29.59 in 6.2 mi ESE 6.9 mph - N/A   Mostly Cloudy
3:30 PM 50.0 °F - 46.4 °F 87% 29.62 in 6.2 mi ESE 8.1 mph - N/A Rain Light Rain
4:00 PM 50.0 °F - 46.4 °F 87% 29.62 in 5.0 mi East 9.2 mph - N/A Rain Light Rain
4:30 PM 48.2 °F - 46.4 °F 93% 29.62 in 5.0 mi East 6.9 mph - N/A Rain Light Rain
5:00 PM 48.2 °F - 46.4 °F 93% 29.62 in 6.2 mi East 5.8 mph - N/A   Mostly Cloudy
5:30 PM 48.2 °F - 46.4 °F 93% 29.62 in 6.2 mi Variable 3.5 mph - N/A   Mostly Cloudy
6:00 PM 48.2 °F - 46.4 °F 93% 29.62 in 6.2 mi ESE 5.8 mph - N/A   Mostly Cloudy
6:30 PM 48.2 °F - 46.4 °F 93% 29.62 in 6.2 mi East 5.8 mph - N/A   Mostly Cloudy
7:00 PM 48.2 °F - 46.4 °F 93% 29.62 in 6.2 mi East 4.6 mph - N/A   Mostly Cloudy
7:30 PM 50.0 °F - 46.4 °F 87% 29.62 in 5.0 mi Variable 3.5 mph - N/A   Unknown
8:00 PM 48.2 °F - 46.4 °F 93% 29.62 in 5.0 mi ENE 4.6 mph - N/A   Mostly Cloudy
8:30 PM 48.2 °F - 46.4 °F 93% 29.62 in 3.7 mi East 6.9 mph - N/A   Mostly Cloudy
9:00 PM 48.2 °F - 48.2 °F 100% 29.62 in 3.7 mi NE 4.6 mph - N/A   Mostly Cloudy
9:30 PM 46.4 °F - 44.6 °F 93% 29.62 in 2.2 mi Variable 1.2 mph - N/A Fog Patches of Fog
10:00 PM 44.6 °F - 44.6 °F 100% 29.62 in 1.6 mi Variable 2.3 mph - N/A Fog Patches of Fog
10:30 PM 44.6 °F - 44.6 °F 100% 29.62 in 0.3 mi Variable 1.2 mph - N/A Fog Fog
11:00 PM 44.6 °F 41.4 °F 44.6 °F 100% 29.65 in 0.1 mi East 5.8 mph - N/A Fog Fog
11:30 PM 44.6 °F 42.2 °F 44.6 °F 100% 29.65 in 0.1 mi East 4.6 mph - N/A Fog Fog